TimeCST,TemperatureF,Dew PointF,Humidity,Sea Level PressureIn,VisibilityMPH,Wind Direction,Wind SpeedMPH,Gust SpeedMPH,PrecipitationIn,Events,Conditions,WindDirDegrees,DateUTC
12:15 AM,14.4,13.1,95,30.41,7.0,Calm,Calm,-,N/A,,Clear,0,2013-01-15 06:15:00
12:35 AM,14.2,12.9,95,30.41,7.0,Calm,Calm,-,N/A,,Clear,0,2013-01-15 06:35:00
12:55 AM,13.8,12.6,95,30.41,7.0,South,3.5,-,N/A,,Clear,190,2013-01-15 06:55:00
1:35 AM,13.1,11.7,94,30.41,7.0,South,3.5,-,N/A,,Clear,180,2013-01-15 07:35:00
1:55 AM,12.7,11.3,94,30.41,7.0,South,3.5,-,N/A,,Clear,170,2013-01-15 07:55:00
2:15 AM,12.6,10.9,93,30.41,7.0,Calm,Calm,-,N/A,,Clear,0,2013-01-15 08:15:00
2:35 AM,12.2,10.6,93,30.41,7.0,Calm,Calm,-,N/A,,Clear,0,2013-01-15 08:35:00
3:15 AM,12.2,10.4,92,30.40,7.0,Calm,Calm,-,N/A,,Clear,0,2013-01-15 09:15:00
3:35 AM,12.4,10.6,92,30.40,7.0,Calm,Calm,-,N/A,,Clear,0,2013-01-15 09:35:00
3:55 AM,12.6,10.9,93,30.40,7.0,Calm,Calm,-,N/A,,Clear,0,2013-01-15 09:55:00
4:15 AM,12.6,10.9,93,30.39,7.0,Calm,Calm,-,N/A,,Clear,0,2013-01-15 10:15:00
4:35 AM,12.2,10.4,92,30.39,7.0,Calm,Calm,-,N/A,,Clear,0,2013-01-15 10:35:00
4:55 AM,12.0,10.2,92,30.38,7.0,Calm,Calm,-,N/A,,Clear,0,2013-01-15 10:55:00
5:15 AM,11.5,9.7,92,30.38,7.0,Calm,Calm,-,N/A,,Clear,0,2013-01-15 11:15:00
5:35 AM,11.3,9.5,92,30.38,7.0,SE,3.5,-,N/A,,Clear,130,2013-01-15 11:35:00
5:55 AM,11.5,9.5,92,30.37,7.0,Calm,Calm,-,N/A,,Clear,0,2013-01-15 11:55:00
6:15 AM,11.3,9.3,92,30.39,7.0,SSE,3.5,-,N/A,,Clear,160,2013-01-15 12:15:00
6:35 AM,11.5,9.5,92,30.40,7.0,Calm,Calm,-,N/A,,Clear,0,2013-01-15 12:35:00
6:55 AM,11.5,9.5,92,30.39,7.0,Calm,Calm,-,N/A,,Clear,0,2013-01-15 12:55:00
7:15 AM,11.5,9.5,92,30.40,7.0,Calm,Calm,-,N/A,,Clear,0,2013-01-15 13:15:00
7:35 AM,11.8,9.7,91,30.40,5.0,Calm,Calm,-,N/A,,Clear,0,2013-01-15 13:35:00
7:55 AM,12.0,9.9,91,30.40,5.0,Calm,Calm,-,N/A,,Clear,0,2013-01-15 13:55:00
8:15 AM,13.1,11.1,92,30.39,5.0,Calm,Calm,-,N/A,,Clear,0,2013-01-15 14:15:00
8:35 AM,14.9,13.1,93,30.40,5.0,Calm,Calm,-,N/A,,Clear,0,2013-01-15 14:35:00
8:55 AM,16.2,14.2,92,30.40,5.0,Calm,Calm,-,N/A,,Clear,0,2013-01-15 14:55:00
9:15 AM,18.0,15.6,91,30.40,5.0,Calm,Calm,-,N/A,,Clear,0,2013-01-15 15:15:00
9:35 AM,20.3,17.2,88,30.41,7.0,Calm,Calm,-,N/A,,Clear,0,2013-01-15 15:35:00
9:55 AM,21.9,17.6,83,30.41,10.0,Calm,Calm,-,N/A,,Clear,0,2013-01-15 15:55:00
10:15 AM,23.2,18.5,82,30.41,10.0,Calm,Calm,-,N/A,,Clear,0,2013-01-15 16:15:00
10:35 AM,23.9,18.1,79,30.40,10.0,Calm,Calm,-,N/A,,Clear,0,2013-01-15 16:35:00
10:55 AM,25.0,19.0,78,30.37,10.0,Calm,Calm,-,N/A,,Clear,0,2013-01-15 16:55:00
11:15 AM,26.2,19.9,77,30.36,10.0,Calm,Calm,-,N/A,,Clear,0,2013-01-15 17:15:00
11:35 AM,26.4,19.9,77,30.35,10.0,Calm,Calm,-,N/A,,Clear,0,2013-01-15 17:35:00
11:55 AM,27.3,20.1,74,30.35,10.0,Calm,Calm,-,N/A,,Clear,0,2013-01-15 17:55:00
12:15 PM,28.0,20.3,73,30.33,10.0,ESE,3.5,-,N/A,,Clear,110,2013-01-15 18:15:00
12:35 PM,28.4,20.5,72,30.29,10.0,NNE,3.5,-,N/A,,Clear,20,2013-01-15 18:35:00
12:55 PM,28.8,20.7,72,30.30,10.0,North,5.8,-,N/A,,Clear,360,2013-01-15 18:55:00
1:15 PM,28.4,20.3,72,30.30,10.0,ENE,3.5,-,N/A,,Clear,60,2013-01-15 19:15:00
1:35 PM,28.6,19.8,70,30.29,10.0,ENE,5.8,-,N/A,,Clear,70,2013-01-15 19:35:00
1:55 PM,28.9,19.8,69,30.28,10.0,NE,4.6,-,N/A,,Clear,50,2013-01-15 19:55:00
2:15 PM,28.9,19.8,69,30.28,10.0,NE,5.8,-,N/A,,Clear,40,2013-01-15 20:15:00
2:35 PM,29.1,20.1,69,30.28,10.0,ENE,4.6,-,N/A,,Scattered Clouds,60,2013-01-15 20:35:00
2:55 PM,29.1,20.5,70,30.28,10.0,East,4.6,-,N/A,,Scattered Clouds,80,2013-01-15 20:55:00
3:15 PM,29.5,20.1,68,30.28,10.0,ESE,5.8,-,N/A,,Clear,110,2013-01-15 21:15:00
3:35 PM,29.1,20.5,70,30.28,10.0,East,4.6,-,N/A,,Clear,100,2013-01-15 21:35:00
3:55 PM,28.9,20.8,72,30.30,10.0,ESE,3.5,-,N/A,,Scattered Clouds,120,2013-01-15 21:55:00
4:15 PM,28.9,21.6,74,30.29,10.0,SSE,5.8,-,N/A,,Scattered Clouds,160,2013-01-15 22:15:00
4:35 PM,28.4,21.7,76,30.27,10.0,SE,3.5,-,N/A,,Clear,140,2013-01-15 22:35:00
5:15 PM,27.3,21.6,79,30.26,10.0,Calm,Calm,-,N/A,,Clear,0,2013-01-15 23:15:00
5:35 PM,27.3,21.7,80,30.26,10.0,Calm,Calm,-,N/A,,Clear,0,2013-01-15 23:35:00
5:55 PM,26.8,22.1,83,30.25,10.0,Calm,Calm,-,N/A,,Clear,0,2013-01-15 23:55:00
6:15 PM,26.1,21.9,84,30.24,10.0,Calm,Calm,-,N/A,,Clear,0,2013-01-16 00:15:00
6:35 PM,25.2,21.6,86,30.23,10.0,ENE,3.5,-,N/A,,Clear,60,2013-01-16 00:35:00
6:55 PM,24.3,21.6,89,30.22,10.0,NNE,3.5,-,N/A,,Clear,30,2013-01-16 00:55:00
7:15 PM,23.9,21.2,89,30.20,10.0,NE,3.5,-,N/A,,Clear,40,2013-01-16 01:15:00
7:35 PM,24.1,20.7,87,30.20,10.0,NE,3.5,-,N/A,,Clear,40,2013-01-16 01:35:00
7:55 PM,23.5,20.8,89,30.20,10.0,NE,3.5,-,N/A,,Clear,40,2013-01-16 01:55:00
8:15 PM,23.2,20.7,90,30.19,10.0,Calm,Calm,-,N/A,,Clear,0,2013-01-16 02:15:00
8:35 PM,21.4,19.6,93,30.18,7.0,Calm,Calm,-,N/A,,Clear,0,2013-01-16 02:35:00
8:55 PM,20.7,19.4,95,30.17,7.0,NE,3.5,-,N/A,,Clear,40,2013-01-16 02:55:00
9:15 PM,21.2,20.1,96,30.17,10.0,NNE,3.5,-,N/A,,Clear,20,2013-01-16 03:15:00
9:35 PM,21.7,20.7,96,30.16,10.0,Calm,Calm,-,N/A,,Clear,0,2013-01-16 03:35:00
9:55 PM,21.6,20.3,95,30.15,10.0,Calm,Calm,-,N/A,,Clear,0,2013-01-16 03:55:00
10:15 PM,20.5,19.4,96,30.15,7.0,Calm,Calm,-,N/A,,Clear,0,2013-01-16 04:15:00
10:35 PM,20.1,19.4,97,30.14,7.0,Calm,Calm,-,N/A,,Clear,0,2013-01-16 04:35:00
10:55 PM,19.8,19.0,97,30.13,7.0,Calm,Calm,-,N/A,,Clear,0,2013-01-16 04:55:00
11:15 PM,19.4,18.7,97,30.13,7.0,Calm,Calm,-,N/A,,Mostly Cloudy,0,2013-01-16 05:15:00
11:35 PM,19.8,19.0,97,30.11,5.0,Calm,Calm,-,N/A,,Scattered Clouds,0,2013-01-16 05:35:00
11:55 PM,19.4,18.7,97,30.11,5.0,Calm,Calm,-,N/A,,Clear,0,2013-01-16 05:55:00